Wind_Speed
12 9 9 3 3 5 7 6 12 14 17 13 11 9 16 15 11 6 19 15 16 14 10 10 10 8 9 9 9 10 10 11 11 11 11 10 11 12 12 12 12 12 12 13 14 13 13 11 10
10 7 5 4 3 8 8 16 16 12 15 15 13 11 8 14 14 22 19 18 15 14 12 8 10 9 8 7 9 10 9 10 10 9 9 10 10 10 12 11 11 11 11 11 12 11 11 10 9
8 4 4 3 3 8 12 15 17 18 17 13 9 13 9 12 20 15 19 18 14 10 9 9 10 9 8 9 9 11 9 9 10 10 10 9 9 10 11 12 11 11 10 9 9 9 8 7 6
5 5 8 2 6 18 14 13 19 20 12 5 14 14 14 17 11 19 20 17 12 13 11 10 10 10 10 10 9 10 10 9 9 9 10 10 10 10 10 9 9 9 9 8 8 8 7 6 6
3 8 3 3 18 17 16 21 20 14 10 10 5 15 17 11 18 21 19 16 14 13 9 11 11 11 9 9 10 11 9 9 9 10 10 9 8 8 8 8 8 8 8 8 9 9 5 3 2
5 3 2 8 17 18 16 18 17 12 6 8 19 22 10 16 20 20 18 16 14 12 11 10 11 10 9 10 10 10 9 9 9 9 9 8 8 8 8 8 8 8 8 9 8 8 6 3 3
8 4 6 13 15 15 14 15 17 15 10 10 16 15 17 21 19 19 18 15 13 12 12 9 8 9 10 11 10 9 9 9 9 9 9 10 9 8 9 9 9 10 11 9 10 13 12 12 15
10 2 1 9 12 13 17 9 14 12 8 13 11 8 21 23 20 19 17 15 14 14 12 12 9 9 8 8 9 9 7 6 5 7 9 11 12 10 11 11 10 12 13 13 14 12 14 14 13
2 3 1 10 3 13 16 15 11 7 9 6 4 12 24 24 21 19 18 15 14 13 14 12 10 10 10 8 7 8 10 11 9 9 10 12 10 6 11 9 13 16 16 14 14 15 18 19 18
4 6 1 8 12 14 15 9 14 11 7 10 14 18 25 24 22 20 18 16 14 14 13 12 11 11 11 9 6 8 3 8 6 8 5 12 8 8 9 12 14 15 14 14 14 17 16 14 17
10 9 7 6 3 8 17 12 15 16 8 15 20 26 26 24 21 19 17 15 15 14 13 13 12 11 11 10 9 6 7 7 8 8 8 9 6 4 10 5 8 8 4 9 9 11 13 7 7
7 11 9 8 1 12 19 18 14 12 3 16 20 24 26 24 22 19 17 17 16 16 14 13 13 11 10 9 11 6 9 11 10 7 11 7 8 9 7 8 7 6 8 2 9 12 6 9 8
9 6 5 17 11 22 20 17 13 17 15 18 21 25 25 23 20 19 17 17 16 16 15 14 13 9 10 8 9 12 10 10 9 8 6 15 7 10 8 9 10 6 3 5 7 6 9 10 8
2 3 23 16 6 11 13 15 14 12 15 19 22 24 24 23 21 20 19 18 17 17 16 14 13 13 11 8 11 10 8 11 10 8 7 8 6 8 14 8 7 3 8 5 4 4 5 9 7
9 9 18 17 17 10 16 15 8 13 15 18 21 22 22 22 21 20 19 19 18 18 17 16 15 13 10 9 12 8 10 9 8 5 7 6 7 7 11 8 7 6 7 6 5 5 5 5 6
13 8 5 14 16 11 21 12 13 14 16 17 20 21 21 22 22 20 19 19 19 18 18 17 14 12 10 9 12 9 11 9 8 8 7 5 8 6 9 6 7 7 6 5 4 4 5 7 7
14 8 1 16 20 13 16 9 24 16 14 16 18 21 22 23 22 21 20 20 20 20 20 17 15 15 11 11 10 11 11 10 8 8 6 6 7 6 8 7 6 8 7 7 6 6 7 9 7
13 14 17 16 15 10 25 21 17 19 19 18 18 20 22 23 23 23 21 21 21 21 21 18 17 15 14 12 12 11 8 10 9 8 6 6 4 4 9 5 7 6 5 5 6 10 8 7 5
8 13 14 22 11 23 7 11 17 18 17 19 19 21 22 23 24 23 23 22 22 22 23 21 18 17 17 14 12 11 11 11 10 6 6 6 5 5 9 4 5 6 6 6 5 7 9 6 6
10 17 10 5 18 8 10 7 18 16 15 20 20 21 22 24 26 26 25 24 24 24 25 24 20 18 18 15 14 11 11 10 9 7 7 5 6 7 8 6 3 8 5 6 7 11 5 4 4
14 17 12 7 8 10 11 7 9 20 16 16 19 20 23 26 28 28 28 28 27 26 27 26 24 20 19 16 14 11 12 10 10 7 5 6 6 7 6 6 6 9 7 4 6 8 10 3 2
17 18 17 7 5 10 12 10 15 16 16 17 20 22 24 26 27 30 30 29 29 27 27 26 25 23 21 20 17 18 14 12 11 9 9 5 6 5 5 5 5 7 4 7 5 5 7 9 3
20 17 17 13 12 14 13 9 12 15 14 13 19 23 24 25 29 32 33 32 31 30 30 28 27 25 23 24 20 19 17 13 12 11 8 8 6 6 4 3 4 5 4 4 4 5 6 4 6
22 17 13 15 14 13 17 10 10 10 13 15 20 22 23 26 28 30 31 32 32 31 31 31 30 29 26 24 26 21 20 15 13 13 9 7 5 4 5 3 4 3 4 5 5 4 4 3 3
27 20 12 12 13 15 17 13 13 11 4 3 17 21 21 22 26 30 33 35 35 35 33 32 33 33 28 25 26 23 21 19 15 16 11 9 7 6 8 3 4 1 1 2 5 6 4 4 3
25 23 16 20 14 16 19 16 14 7 10 9 7 13 22 24 25 30 35 37 37 37 35 34 34 34 30 28 27 27 25 21 17 17 13 11 8 7 13 6 4 3 2 1 4 4 2 6 5
27 23 23 22 22 15 15 21 19 7 9 10 7 10 9 5 18 28 34 37 38 37 37 35 34 35 31 29 28 28 28 26 21 18 19 14 13 9 13 7 5 4 4 2 2 2 3 4 5
27 19 21 17 23 22 18 12 9 15 17 16 11 7 5 6 12 23 31 36 37 37 36 35 35 33 32 29 29 30 30 32 26 24 21 19 16 16 12 9 8 7 7 5 3 5 8 6 5
21 25 20 20 21 19 17 14 13 8 5 2 11 10 9 6 6 11 25 32 34 35 36 36 36 34 33 32 31 31 29 30 32 24 25 23 20 19 18 13 11 10 9 9 8 6 9 10 8
25 28 27 13 22 17 18 14 11 15 13 14 3 5 8 11 9 6 19 28 33 36 36 37 38 38 35 35 35 34 29 28 27 30 25 23 24 23 20 18 16 14 13 13 12 11 10 11 12
Wind_Direction
156 146 169 228 229 222 121 115 120 123 119 109 93 70 74 37 39 76 134 139 134 139 141 126 125 113 110 107 101 100 95 95 95 93 92 95 96 96 96 93 91 93 93 87 90 86 86 87 87
155 178 216 249 231 129 117 126 126 112 119 110 110 111 93 64 95 124 129 136 137 131 133 135 129 125 114 107 109 98 98 101 97 94 92 97 100 100 100 96 94 94 90 86 89 87 86 90 94
162 221 251 227 236 134 109 129 117 120 127 120 100 82 52 107 117 120 137 135 135 139 142 158 132 120 105 115 105 97 102 104 95 90 95 104 104 102 95 92 89 85 81 80 77 77 80 83 98
176 217 256 239 133 105 131 142 131 131 89 103 115 95 90 121 113 133 136 137 140 127 140 140 138 129 116 113 122 118 113 99 103 102 97 99 102 99 90 85 82 79 70 58 59 60 58 75 94
226 263 266 232 108 118 120 125 146 122 117 93 90 105 111 111 127 134 139 139 139 147 142 136 138 132 129 126 116 119 109 110 105 96 94 91 93 93 91 83 76 71 67 56 45 31 6 309 231
283 123 278 104 105 106 117 138 123 114 102 121 97 121 115 137 136 139 140 140 137 139 136 138 136 142 141 128 120 119 117 112 102 93 87 84 79 77 76 72 72 77 80 81 34 18 52 94 109
246 252 100 121 129 138 123 123 167 117 173 117 134 112 136 148 145 144 142 141 146 140 133 131 137 137 133 124 124 121 117 107 95 87 78 75 76 78 77 80 82 83 92 95 53 53 64 81 98
266 298 129 155 130 137 138 121 95 143 156 131 136 146 156 154 151 148 142 143 143 140 137 140 148 133 126 117 124 116 104 101 90 85 77 78 63 75 75 64 82 96 93 87 80 71 74 89 105
66 31 284 90 154 128 149 139 111 159 144 143 96 137 153 155 152 149 147 147 146 147 147 151 149 133 142 133 111 87 80 72 78 89 93 76 80 55 58 87 93 94 94 88 86 82 79 88 97
57 157 201 317 129 155 146 175 152 138 136 130 128 128 149 155 157 157 157 156 155 153 154 150 144 150 145 129 104 97 87 78 108 121 115 86 101 114 98 86 84 92 90 81 78 83 74 89 59
171 117 145 349 4 175 138 198 169 140 178 160 144 147 155 160 162 163 162 159 159 156 153 155 152 151 137 141 128 135 102 116 101 101 84 114 102 83 89 59 66 59 59 103 90 92 72 64 76
84 88 169 166 189 162 165 179 138 84 130 160 152 158 159 164 166 166 164 161 161 159 158 155 155 161 138 141 116 132 92 113 103 104 88 91 90 84 82 114 115 82 62 149 111 101 139 104 100
100 182 324 139 168 162 184 153 142 135 132 132 151 159 163 167 168 166 166 165 164 163 161 161 155 151 153 133 147 112 120 116 111 95 95 83 104 97 82 54 52 92 120 91 84 95 112 148 106
138 88 166 141 140 162 156 112 172 127 135 138 154 163 167 168 169 167 168 168 169 165 164 168 157 151 151 156 144 129 114 114 111 105 94 96 94 86 69 47 66 68 72 114 89 61 72 62 104
266 173 171 167 176 184 190 141 134 142 152 149 160 169 170 171 170 171 171 171 172 169 167 165 158 150 158 158 136 136 138 127 121 108 99 96 92 75 90 72 63 62 67 90 79 95 94 108 108
242 157 280 155 175 168 77 325 106 149 160 160 163 171 172 175 175 174 174 174 175 172 171 169 166 166 161 161 151 144 145 133 127 117 106 90 70 114 86 68 64 72 85 99 105 110 119 120 113
224 133 251 336 266 160 108 270 254 163 160 165 169 170 177 179 179 179 178 177 177 174 173 172 170 161 163 163 152 148 153 139 135 127 111 105 99 82 75 71 69 65 75 86 80 93 119 127 123
224 156 145 182 279 201 150 187 193 175 168 169 174 175 181 184 184 183 181 179 179 178 177 177 174 168 166 161 158 154 148 149 143 136 130 110 105 108 75 80 74 82 81 73 97 110 123 128 113
306 277 157 218 345 272 249 80 160 172 179 170 176 178 185 187 186 186 187 184 185 184 180 182 181 182 167 173 166 168 161 156 153 159 141 121 107 91 70 98 88 95 99 114 83 69 106 108 129
244 268 192 174 167 284 221 212 152 168 196 175 181 181 187 187 187 189 189 189 191 189 187 185 187 192 174 178 176 172 167 163 163 155 145 143 122 107 77 85 88 111 41 82 97 134 113 87 139
225 246 249 261 164 231 280 239 220 165 185 202 190 186 189 190 189 190 192 192 193 192 191 190 191 197 184 185 183 183 171 172 157 173 149 152 140 113 87 71 75 72 76 54 78 98 132 131 52
230 228 259 282 219 256 191 255 182 172 180 193 192 191 190 192 194 193 194 194 195 196 193 192 193 198 192 185 189 187 182 178 178 168 168 157 150 132 104 85 60 99 60 72 49 67 98 109 82
231 243 223 245 249 263 214 262 172 185 188 193 202 197 195 194 196 196 197 197 196 195 194 192 195 197 197 192 187 197 188 186 178 171 174 157 172 154 148 119 81 69 78 44 56 66 91 78 100
235 237 250 251 243 244 247 245 233 188 193 194 185 196 200 198 200 201 200 199 200 197 195 193 198 197 194 204 189 197 199 187 189 180 178 178 178 185 166 160 120 117 52 39 50 70 72 69 83
236 221 218 223 225 239 238 223 251 78 105 107 167 185 197 205 203 202 200 200 201 200 199 196 199 203 199 201 203 199 199 194 194 193 181 186 187 193 242 208 128 115 138 70 42 44 64 55 56
224 227 225 221 225 229 224 245 224 170 170 193 227 191 189 201 210 207 205 202 202 200 200 199 200 207 201 202 205 209 205 202 197 200 193 196 195 204 233 226 193 166 162 176 30 18 44 14 8
220 216 240 247 255 256 223 203 231 163 239 218 158 226 236 279 228 207 206 204 204 202 201 200 202 206 203 206 208 209 211 197 207 209 195 200 197 208 231 210 208 209 207 246 310 234 331 358 359
241 212 219 239 249 254 246 235 205 191 216 220 194 209 326 318 285 208 205 203 204 204 203 202 205 209 205 204 208 212 211 211 197 206 222 199 213 195 228 216 214 221 218 238 282 264 298 321 324
216 238 226 227 231 246 245 239 217 182 151 160 126 203 337 353 317 232 202 201 201 203 203 204 204 207 207 205 208 209 210 212 208 210 215 208 204 221 212 227 218 223 223 237 255 246 235 279 281
235 218 231 227 232 240 253 250 227 201 177 213 110 125 49 334 339 244 205 199 199 203 203 204 205 205 208 208 206 214 212 210 213 210 216 217 213 222 228 228 230 227 231 234 242 253 245 259 270
Height
1498 1500 1502 1503 1506 1494 1491 1493 1479 1483 1484 1487 1492 1492 1499 1505 1508 1525 1528 1531 1535 1536 1537 1538 1538 1539 1540 1541 1543 1543 1543 1544 1544 1545 1545 1546 1546 1547 1547 1548 1549 1549 1550 1550 1551 1551 1551 1551 1552
1502 1503 1504 1500 1499 1494 1496 1480 1487 1484 1490 1495 1498 1499 1501 1512 1516 1523 1530 1534 1536 1538 1539 1540 1540 1541 1542 1543 1544 1545 1545 1545 1546 1546 1547 1548 1548 1549 1549 1550 1551 1551 1552 1553 1553 1553 1553 1553 1554
1503 1504 1503 1497 1492 1488 1494 1483 1484 1490 1494 1495 1499 1503 1508 1520 1522 1526 1531 1536 1539 1539 1540 1540 1542 1543 1544 1545 1546 1546 1547 1547 1547 1548 1548 1549 1550 1550 1551 1552 1553 1554 1555 1554 1555 1554 1555 1555 1555
1504 1504 1500 1497 1487 1476 1485 1482 1489 1491 1496 1498 1499 1510 1518 1522 1525 1529 1533 1537 1539 1542 1542 1541 1543 1544 1546 1547 1548 1548 1548 1549 1549 1550 1550 1551 1552 1552 1553 1554 1555 1556 1557 1556 1557 1557 1555 1555 1556
1502 1499 1496 1490 1481 1474 1477 1485 1490 1492 1495 1500 1503 1510 1520 1526 1527 1531 1535 1538 1541 1543 1543 1542 1544 1546 1547 1548 1549 1549 1550 1550 1550 1552 1552 1553 1553 1554 1555 1556 1557 1558 1559 1558 1557 1556 1555 1554 1555
1501 1497 1502 1499 1488 1482 1485 1488 1492 1497 1507 1504 1506 1514 1524 1528 1530 1533 1536 1539 1541 1543 1545 1544 1545 1547 1549 1549 1550 1551 1552 1552 1552 1553 1554 1555 1556 1556 1557 1557 1558 1559 1559 1558 1558 1556 1555 1554 1553
1494 1487 1494 1489 1492 1488 1490 1493 1497 1501 1506 1507 1508 1511 1524 1528 1532 1534 1537 1540 1542 1545 1547 1548 1548 1548 1550 1551 1551 1552 1553 1554 1555 1555 1556 1557 1557 1558 1558 1559 1559 1559 1560 1559 1557 1556 1555 1555 1555
1492 1486 1487 1484 1491 1494 1490 1497 1497 1502 1504 1505 1507 1511 1522 1527 1532 1535 1538 1541 1544 1546 1549 1551 1551 1552 1553 1553 1553 1554 1555 1556 1557 1557 1558 1558 1559 1559 1560 1560 1561 1561 1561 1561 1561 1560 1559 1558 1559
1494 1496 1495 1491 1490 1489 1492 1495 1501 1503 1503 1505 1510 1512 1520 1527 1532 1536 1539 1542 1545 1547 1549 1551 1553 1554 1556 1555 1555 1556 1557 1558 1558 1559 1560 1560 1561 1563 1562 1562 1562 1562 1563 1564 1564 1563 1562 1563 1563
1500 1498 1492 1483 1481 1488 1491 1492 1500 1502 1505 1507 1511 1514 1522 1528 1532 1535 1539 1542 1545 1547 1550 1552 1554 1556 1557 1558 1558 1558 1560 1559 1560 1561 1561 1562 1564 1564 1566 1565 1564 1564 1565 1565 1565 1565 1565 1564 1566
1485 1489 1491 1489 1480 1482 1491 1496 1493 1497 1508 1504 1510 1516 1522 1527 1532 1536 1538 1542 1545 1548 1550 1553 1555 1556 1558 1560 1559 1561 1563 1562 1562 1563 1564 1564 1566 1564 1565 1566 1566 1566 1563 1565 1565 1565 1568 1567 1571
1481 1484 1486 1491 1486 1487 1489 1488 1494 1499 1503 1501 1510 1516 1521 1526 1530 1535 1538 1542 1545 1548 1551 1553 1555 1557 1558 1560 1561 1561 1562 1562 1565 1565 1564 1565 1567 1565 1565 1568 1567 1567 1568 1566 1553 1569 1569 1572 1573
1481 1481 1486 1483 1485 1483 1485 1484 1488 1493 1498 1502 1511 1517 1520 1525 1530 1534 1538 1542 1545 1549 1551 1554 1555 1558 1560 1561 1562 1563 1564 1566 1566 1567 1565 1565 1567 1561 1568 1567 1566 1568 1567 1567 1569 1570 1570 1570 1573
1473 1485 1484 1480 1482 1478 1477 1482 1486 1496 1500 1505 1512 1517 1520 1522 1528 1533 1537 1541 1545 1548 1551 1553 1556 1559 1561 1561 1563 1565 1566 1567 1569 1569 1569 1569 1570 1569 1568 1570 1571 1570 1568 1570 1571 1571 1572 1571 1573
1472 1474 1473 1474 1477 1476 1474 1482 1481 1495 1501 1505 1511 1516 1519 1522 1526 1532 1537 1541 1545 1547 1551 1554 1556 1559 1562 1562 1563 1566 1566 1569 1570 1570 1571 1572 1572 1569 1570 1573 1572 1572 1572 1573 1572 1574 1574 1575 1576
1467 1479 1484 1470 1473 1473 1485 1522 1489 1496 1500 1505 1508 1513 1518 1522 1526 1531 1535 1540 1544 1547 1551 1554 1557 1560 1562 1564 1565 1567 1568 1570 1571 1572 1573 1573 1573 1573 1571 1575 1574 1574 1575 1575 1575 1575 1576 1577 1577
1463 1490 1512 1503 1471 1467 1485 1526 1500 1495 1499 1503 1508 1510 1516 1521 1525 1530 1534 1539 1543 1547 1550 1554 1557 1559 1562 1564 1566 1568 1568 1571 1573 1574 1574 1576 1575 1574 1575 1576 1576 1576 1576 1576 1576 1575 1576 1577 1578
1463 1465 1494 1512 1473 1459 1479 1506 1485 1488 1492 1499 1505 1509 1514 1518 1522 1528 1532 1537 1541 1545 1549 1554 1557 1559 1562 1565 1567 1569 1570 1572 1574 1575 1575 1576 1577 1575 1574 1577 1577 1577 1577 1576 1575 1575 1577 1578 1578
1460 1466 1478 1501 1493 1476 1466 1488 1473 1481 1484 1492 1499 1505 1510 1515 1520 1525 1530 1535 1540 1543 1546 1551 1556 1557 1560 1564 1567 1568 1570 1572 1574 1575 1575 1576 1577 1577 1576 1578 1578 1576 1577 1576 1576 1578 1578 1580 1579
1462 1464 1462 1461 1468 1467 1469 1463 1464 1475 1480 1483 1491 1498 1505 1510 1516 1522 1527 1532 1537 1541 1545 1549 1553 1556 1559 1563 1565 1568 1570 1572 1574 1575 1576 1577 1578 1578 1578 1579 1579 1577 1577 1577 1576 1577 1581 1580 1579
1462 1466 1461 1464 1464 1467 1465 1470 1464 1467 1477 1479 1484 1491 1499 1504 1510 1517 1523 1527 1533 1537 1542 1546 1550 1554 1557 1562 1564 1566 1568 1571 1573 1575 1576 1577 1578 1579 1579 1579 1579 1579 1580 1578 1577 1577 1578 1580 1579
1469 1459 1459 1466 1471 1476 1459 1477 1462 1456 1467 1473 1478 1484 1491 1498 1505 1512 1518 1524 1529 1534 1539 1543 1548 1551 1555 1559 1563 1566 1568 1570 1572 1574 1576 1577 1578 1580 1580 1580 1580 1578 1580 1579 1578 1577 1577 1578 1581
1465 1455 1460 1463 1468 1467 1467 1472 1456 1452 1464 1466 1471 1477 1483 1492 1498 1505 1512 1518 1524 1529 1534 1539 1543 1548 1553 1556 1560 1564 1566 1569 1572 1574 1574 1578 1577 1579 1581 1580 1580 1579 1581 1578 1578 1577 1577 1579 1580
1457 1460 1470 1462 1465 1483 1464 1465 1456 1449 1451 1454 1463 1472 1479 1485 1493 1500 1508 1515 1520 1525 1529 1533 1538 1543 1548 1552 1556 1560 1563 1567 1570 1572 1574 1576 1578 1578 1578 1579 1580 1580 1579 1579 1579 1578 1579 1579 1579
1456 1462 1488 1492 1486 1486 1451 1461 1452 1442 1448 1449 1455 1466 1474 1481 1487 1494 1501 1508 1515 1520 1525 1529 1533 1538 1544 1549 1552 1556 1560 1563 1568 1570 1572 1575 1577 1578 1577 1578 1578 1580 1580 1579 1578 1578 1579 1579 1579
1453 1454 1469 1496 1483 1470 1451 1465 1452 1441 1447 1452 1457 1459 1464 1471 1478 1485 1493 1500 1507 1514 1520 1524 1528 1534 1540 1545 1548 1552 1557 1562 1565 1567 1571 1573 1575 1577 1575 1577 1578 1579 1579 1579 1578 1579 1579 1578 1578
1447 1454 1447 1460 1449 1455 1441 1441 1439 1442 1448 1452 1455 1460 1461 1464 1466 1473 1483 1493 1501 1508 1513 1519 1525 1530 1535 1540 1544 1548 1552 1557 1561 1565 1567 1570 1572 1575 1574 1575 1576 1578 1578 1578 1578 1580 1579 1578 1578
1441 1440 1467 1458 1481 1480 1450 1449 1447 1443 1447 1449 1452 1456 1460 1464 1465 1464 1474 1485 1495 1502 1509 1515 1521 1526 1530 1536 1540 1543 1547 1551 1556 1561 1562 1566 1569 1570 1572 1573 1575 1576 1577 1577 1578 1580 1578 1578 1577
1447 1445 1442 1445 1453 1467 1468 1450 1426 1437 1443 1446 1451 1461 1464 1463 1465 1465 1470 1479 1489 1497 1502 1508 1515 1521 1526 1530 1534 1538 1542 1546 1551 1556 1559 1561 1565 1565 1567 1569 1572 1574 1575 1575 1576 1577 1577 1576 1575
1432 1437 1439 1453 1467 1447 1447 1446 1420 1425 1435 1450 1454 1458 1461 1466 1466 1468 1470 1476 1483 1490 1496 1502 1509 1515 1519 1525 1529 1532 1538 1542 1546 1550 1554 1557 1559 1561 1563 1565 1567 1570 1572 1573 1573 1573 1576 1575 1573